{"data":{"norad_id":64765,"intl_designator":"2025-147L","name":"STARLINK-34566","alt_names":[],"object_type":"PAYLOAD","status":"ACTIVE","operator":null,"country":"US","launch_date":"2025-07-08","launch_site_code":"AFETR","launch_vehicle":null,"mission":null,"orbit_class":"UNKNOWN","rcs_meters":null,"size_class":null,"mass_kg":null,"dimensions":null,"purposes":["comms"],"wikipedia_slug":null,"has_3d_model":false,"image_url":null,"decayed_at":null,"tle_current":{"epoch":"2026-09-20T20:46:49.124640Z","epoch_age_seconds":95985,"freshness":"FRESH","line1":"1 64765U 25147L   26263.86584635  .00015692  00000+0  47468-3 0  9995","line2":"2 64765  53.1584  51.9528 0000666  93.6904 266.4175 15.34393775 68692","mean_motion":15.34393775,"eccentricity":6.66e-5,"inclination_deg":53.1584,"raan_deg":51.9528,"arg_perigee_deg":93.6904,"mean_anomaly_deg":266.4175,"bstar":0.00047468,"rev_number":6869,"period_min":93.848138819515,"perigee_km":462.26614108928,"apogee_km":463.17734347375,"semimajor_km":6840.8587422815,"source":"CELESTRAK","updated_at":"2026-09-21T09:00:35.438158Z"}}}